Skip Page Navigation
NASA JPL Caltech
NASA Logo - Jet Propulsion Laboratory + View the NASA Portal
+ Center for Near-Earth Object Studies
JPL Home Earth Solar System Stars & Galaxies Technology
JPL Solar System Dynamics
BODIES ORBITS EPHEMERIDES TOOLS PHYSICAL DATA DISCOVERY FAQ SITE MAP
JPL Small-Body Database Browser
Search: [ help ]  
214127 (2004 XE96)
Classification: Main-belt Asteroid          SPK-ID: 2214127
Ephemeris | Orbit Diagram | Orbital Elements | Mission Design | Physical Parameters | Discovery Circumstances | Close-Approach Data ]

[ show orbit diagram ]
Orbital Elements at Epoch 2459000.5 (2020-May-31.0) TDB
Reference: JPL 7 (heliocentric ecliptic J2000)
 Element Value Uncertainty (1-sigma)   Units 
e .1668819719927735 4.5964e-08  
a 2.271111036515952 1.5858e-08 au
q 1.892103548127618 1.0563e-07 au
i 1.899246286545588 6.5728e-06 deg
node 340.2867241732126 0.00014627 deg
peri 124.8244365972957 0.00014886 deg
M 181.3564476364087 2.7141e-05 deg
tp 2459620.855767028015
(2022-Feb-10.35576703)
9.8124e-05 TDB
period 1250.132306345701
3.42
1.3094e-05
3.585e-08
d
yr
n .2879695198441249 3.0162e-09 deg/d
Q 2.650118524904286 1.8505e-08 au
  Orbit Determination Parameters
   # obs. used (total)      170  
   data-arc span      6795 days (18.60 yr)  
   first obs. used      2000-08-25  
   last obs. used      2019-04-03  
   planetary ephem.      DE431  
   SB-pert. ephem.      SB431-N16  
   condition code      0  
   norm. resid. RMS      .62075  
   source      ORB  
   producer      Otto Matic  
   solution date      2019-Jul-13 22:11:49  

Additional Information
 Earth MOID = .909708 au 
 Jupiter MOID = 2.4771 au 
 T_jup = 3.593 
[ show covariance matrix ]

Ephemeris | Orbit Diagram | Orbital Elements | Mission Design | Physical Parameters | Discovery Circumstances | Close-Approach Data ]

Physical Parameter Table
Parameter Symbol Value Units Sigma Reference Notes
absolute magnitude H 17.7   n/a MPO418147  

214127 (2004 XE96)          Discovered 2004-Dec-11 by Spacewatch at Kitt Peak
Reference: 20090509/Numbers.arcLast Updated: 2009-05-11

[ show close-approach data ]
Ephemeris | Orbit Diagram | Orbital Elements | Mission Design | Physical Parameters | Discovery Circumstances | Close-Approach Data ]
ABOUT SSD CREDITS/AWARDS PRIVACY/COPYRIGHT GLOSSARY LINKS
FirstGov 2020-Jul-16 17:01 UT
(server date/time)  
NASA Home Page
Site Manager:   Ryan S. Park
Webmaster  Alan B. Chamberlin